owner,sensor,date,latitude,longitude,relative_humidity,qcFlag 
WAVCIS,ioos:station:WAVCIS:CSI06:1,2010-08-01T00:00:00Z,28.8667,-90.4833,56.8,11111222 
WAVCIS,ioos:station:WAVCIS:CSI06:1,2010-08-01T01:00:00Z,28.8667,-90.4833,56.0,11111222 
WAVCIS,ioos:station:WAVCIS:CSI06:1,2010-08-01T02:00:00Z,28.8667,-90.4833,55.5,11111222 
WAVCIS,ioos:station:WAVCIS:CSI06:1,2010-08-01T03:00:00Z,28.8667,-90.4833,58.3,11111222 
WAVCIS,ioos:station:WAVCIS:CSI06:1,2010-08-01T04:00:00Z,28.8667,-90.4833,32.7,11111222 
WAVCIS,ioos:station:WAVCIS:CSI06:1,2010-08-01T05:00:00Z,28.8667,-90.4833,32.4,11111222 
WAVCIS,ioos:station:WAVCIS:CSI06:1,2010-08-01T06:00:00Z,28.8667,-90.4833,33.2,11111222 
WAVCIS,ioos:station:WAVCIS:CSI06:1,2010-08-01T07:00:00Z,28.8667,-90.4833,34.4,11111222 
WAVCIS,ioos:station:WAVCIS:CSI06:1,2010-08-01T08:00:00Z,28.8667,-90.4833,38.7,11111222 
WAVCIS,ioos:station:WAVCIS:CSI06:1,2010-08-01T09:00:00Z,28.8667,-90.4833,39.6,11111222 
WAVCIS,ioos:station:WAVCIS:CSI06:1,2010-08-01T10:00:00Z,28.8667,-90.4833,33.3,11111222 
WAVCIS,ioos:station:WAVCIS:CSI06:1,2010-08-01T11:00:00Z,28.8667,-90.4833,40.7,11111222 
WAVCIS,ioos:station:WAVCIS:CSI06:1,2010-08-01T12:00:00Z,28.8667,-90.4833,41.7,11111222 
WAVCIS,ioos:station:WAVCIS:CSI06:1,2010-08-01T13:00:00Z,28.8667,-90.4833,37.7,11111222 
WAVCIS,ioos:station:WAVCIS:CSI06:1,2010-08-01T14:00:00Z,28.8667,-90.4833,34.5,11111222 
WAVCIS,ioos:station:WAVCIS:CSI06:1,2010-08-01T15:00:00Z,28.8667,-90.4833,33.3,11111222 
WAVCIS,ioos:station:WAVCIS:CSI06:1,2010-08-01T16:00:00Z,28.8667,-90.4833,29.7,11111222 
WAVCIS,ioos:station:WAVCIS:CSI06:1,2010-08-01T17:00:00Z,28.8667,-90.4833,26.7,11111222 
WAVCIS,ioos:station:WAVCIS:CSI06:1,2010-08-01T18:00:00Z,28.8667,-90.4833,24.8,11111222 
WAVCIS,ioos:station:WAVCIS:CSI06:1,2010-08-01T19:00:00Z,28.8667,-90.4833,24.0,11111222 
WAVCIS,ioos:station:WAVCIS:CSI06:1,2010-08-01T20:00:00Z,28.8667,-90.4833,23.8,11111222 
WAVCIS,ioos:station:WAVCIS:CSI06:1,2010-08-01T21:00:00Z,28.8667,-90.4833,19.4,11111222 
WAVCIS,ioos:station:WAVCIS:CSI06:1,2010-08-01T22:00:00Z,28.8667,-90.4833,19.8,11111222 
WAVCIS,ioos:station:WAVCIS:CSI06:1,2010-08-01T23:00:00Z,28.8667,-90.4833,19.5,11111222 
WAVCIS,ioos:station:WAVCIS:CSI06:1,2010-08-02T00:00:00Z,28.8667,-90.4833,19.3,11111222 
WAVCIS,ioos:station:WAVCIS:CSI06:1,2010-08-02T03:00:00Z,28.8667,-90.4833,9.0,11111222 
WAVCIS,ioos:station:WAVCIS:CSI06:1,2010-08-02T04:00:00Z,28.8667,-90.4833,21.7,11111222 
WAVCIS,ioos:station:WAVCIS:CSI06:1,2010-08-02T05:00:00Z,28.8667,-90.4833,3.4,11111222 
WAVCIS,ioos:station:WAVCIS:CSI06:1,2010-08-02T06:00:00Z,28.8667,-90.4833,0.2,11111222 
WAVCIS,ioos:station:WAVCIS:CSI06:1,2010-08-02T07:00:00Z,28.8667,-90.4833,11.8,11111222 
WAVCIS,ioos:station:WAVCIS:CSI06:1,2010-08-02T08:00:00Z,28.8667,-90.4833,7.4,11111222 
WAVCIS,ioos:station:WAVCIS:CSI06:1,2010-08-02T09:00:00Z,28.8667,-90.4833,5.0,11111222 
WAVCIS,ioos:station:WAVCIS:CSI06:1,2010-08-02T10:00:00Z,28.8667,-90.4833,4.2,11111222 
WAVCIS,ioos:station:WAVCIS:CSI06:1,2010-08-02T11:00:00Z,28.8667,-90.4833,5.4,11111222 
WAVCIS,ioos:station:WAVCIS:CSI06:1,2010-08-02T12:00:00Z,28.8667,-90.4833,4.0,11111222 
WAVCIS,ioos:station:WAVCIS:CSI06:1,2010-08-02T13:00:00Z,28.8667,-90.4833,1.2,11111222 
WAVCIS,ioos:station:WAVCIS:CSI06:1,2010-08-02T14:00:00Z,28.8667,-90.4833,6.0,11111222 
WAVCIS,ioos:station:WAVCIS:CSI06:1,2010-08-02T15:00:00Z,28.8667,-90.4833,1.4,11111222 
WAVCIS,ioos:station:WAVCIS:CSI06:1,2010-08-02T16:00:00Z,28.8667,-90.4833,1.1,11111222 
WAVCIS,ioos:station:WAVCIS:CSI06:1,2010-08-02T21:00:00Z,28.8667,-90.4833,2.2,11111222 
WAVCIS,ioos:station:WAVCIS:CSI06:1,2010-08-02T22:00:00Z,28.8667,-90.4833,0.5,11111222 
WAVCIS,ioos:station:WAVCIS:CSI06:1,2010-08-02T23:00:00Z,28.8667,-90.4833,0.4,11111222 
WAVCIS,ioos:station:WAVCIS:CSI06:1,2010-08-03T03:00:00Z,28.8667,-90.4833,2.6,11111222 
WAVCIS,ioos:station:WAVCIS:CSI06:1,2010-08-03T04:00:00Z,28.8667,-90.4833,7.9,11111222 
WAVCIS,ioos:station:WAVCIS:CSI06:1,2010-08-03T05:00:00Z,28.8667,-90.4833,29.9,11111222 
WAVCIS,ioos:station:WAVCIS:CSI06:1,2010-08-03T06:00:00Z,28.8667,-90.4833,35.3,11111222 
WAVCIS,ioos:station:WAVCIS:CSI06:1,2010-08-03T07:00:00Z,28.8667,-90.4833,33.3,11111222 
WAVCIS,ioos:station:WAVCIS:CSI06:1,2010-08-03T08:00:00Z,28.8667,-90.4833,37.2,11111222 
WAVCIS,ioos:station:WAVCIS:CSI06:1,2010-08-03T09:00:00Z,28.8667,-90.4833,35.0,11111222 
WAVCIS,ioos:station:WAVCIS:CSI06:1,2010-08-03T10:00:00Z,28.8667,-90.4833,34.1,11111222 
WAVCIS,ioos:station:WAVCIS:CSI06:1,2010-08-03T11:00:00Z,28.8667,-90.4833,37.6,11111222 
WAVCIS,ioos:station:WAVCIS:CSI06:1,2010-08-03T12:00:00Z,28.8667,-90.4833,35.7,11111222 
WAVCIS,ioos:station:WAVCIS:CSI06:1,2010-08-03T13:00:00Z,28.8667,-90.4833,34.3,11111222 
WAVCIS,ioos:station:WAVCIS:CSI06:1,2010-08-03T14:00:00Z,28.8667,-90.4833,30.4,11111222 
WAVCIS,ioos:station:WAVCIS:CSI06:1,2010-08-03T15:00:00Z,28.8667,-90.4833,28.0,11111222 
WAVCIS,ioos:station:WAVCIS:CSI06:1,2010-08-03T16:00:00Z,28.8667,-90.4833,25.4,11111222 
WAVCIS,ioos:station:WAVCIS:CSI06:1,2010-08-03T17:00:00Z,28.8667,-90.4833,24.0,11111222 
WAVCIS,ioos:station:WAVCIS:CSI06:1,2010-08-03T18:00:00Z,28.8667,-90.4833,20.2,11111222 
WAVCIS,ioos:station:WAVCIS:CSI06:1,2010-08-03T19:00:00Z,28.8667,-90.4833,16.3,11111222 
WAVCIS,ioos:station:WAVCIS:CSI06:1,2010-08-03T20:00:00Z,28.8667,-90.4833,22.8,11111222 
WAVCIS,ioos:station:WAVCIS:CSI06:1,2010-08-03T21:00:00Z,28.8667,-90.4833,21.4,11111222 
WAVCIS,ioos:station:WAVCIS:CSI06:1,2010-08-03T22:00:00Z,28.8667,-90.4833,27.0,11111222 
WAVCIS,ioos:station:WAVCIS:CSI06:1,2010-08-03T23:00:00Z,28.8667,-90.4833,20.5,11111222 
WAVCIS,ioos:station:WAVCIS:CSI06:1,2010-08-04T00:00:00Z,28.8667,-90.4833,20.5,11111222 
WAVCIS,ioos:station:WAVCIS:CSI06:1,2010-08-04T01:00:00Z,28.8667,-90.4833,24.0,11111222 
WAVCIS,ioos:station:WAVCIS:CSI06:1,2010-08-04T02:00:00Z,28.8667,-90.4833,23.9,11111222 
WAVCIS,ioos:station:WAVCIS:CSI06:1,2010-08-04T03:00:00Z,28.8667,-90.4833,23.0,11111222 
WAVCIS,ioos:station:WAVCIS:CSI06:1,2010-08-04T04:00:00Z,28.8667,-90.4833,23.4,11111222 
WAVCIS,ioos:station:WAVCIS:CSI06:1,2010-08-04T05:00:00Z,28.8667,-90.4833,23.1,11111222 
WAVCIS,ioos:station:WAVCIS:CSI06:1,2010-08-04T06:00:00Z,28.8667,-90.4833,24.9,11111222 
WAVCIS,ioos:station:WAVCIS:CSI06:1,2010-08-04T07:00:00Z,28.8667,-90.4833,24.4,11111222 
WAVCIS,ioos:station:WAVCIS:CSI06:1,2010-08-04T08:00:00Z,28.8667,-90.4833,26.7,11111222 
WAVCIS,ioos:station:WAVCIS:CSI06:1,2010-08-04T09:00:00Z,28.8667,-90.4833,24.3,11111222 
WAVCIS,ioos:station:WAVCIS:CSI06:1,2010-08-04T10:00:00Z,28.8667,-90.4833,25.3,11111222 
WAVCIS,ioos:station:WAVCIS:CSI06:1,2010-08-04T11:00:00Z,28.8667,-90.4833,24.4,11111222 
WAVCIS,ioos:station:WAVCIS:CSI06:1,2010-08-04T12:00:00Z,28.8667,-90.4833,26.1,11111222 
WAVCIS,ioos:station:WAVCIS:CSI06:1,2010-08-04T13:00:00Z,28.8667,-90.4833,28.7,11111222 
WAVCIS,ioos:station:WAVCIS:CSI06:1,2010-08-04T14:00:00Z,28.8667,-90.4833,28.9,11111222 
WAVCIS,ioos:station:WAVCIS:CSI06:1,2010-08-04T15:00:00Z,28.8667,-90.4833,30.0,11111222 
WAVCIS,ioos:station:WAVCIS:CSI06:1,2010-08-04T16:00:00Z,28.8667,-90.4833,22.7,11111222 
WAVCIS,ioos:station:WAVCIS:CSI06:1,2010-08-04T17:00:00Z,28.8667,-90.4833,23.0,11111222 
WAVCIS,ioos:station:WAVCIS:CSI06:1,2010-08-04T18:00:00Z,28.8667,-90.4833,20.6,11111222 
WAVCIS,ioos:station:WAVCIS:CSI06:1,2010-08-04T19:00:00Z,28.8667,-90.4833,16.8,11111222 
WAVCIS,ioos:station:WAVCIS:CSI06:1,2010-08-04T20:00:00Z,28.8667,-90.4833,15.1,11111222 
WAVCIS,ioos:station:WAVCIS:CSI06:1,2010-08-04T21:00:00Z,28.8667,-90.4833,21.7,11111222 
WAVCIS,ioos:station:WAVCIS:CSI06:1,2010-08-04T22:00:00Z,28.8667,-90.4833,22.6,11111222 
WAVCIS,ioos:station:WAVCIS:CSI06:1,2010-08-04T23:00:00Z,28.8667,-90.4833,23.5,11111222 
WAVCIS,ioos:station:WAVCIS:CSI06:1,2010-08-05T00:00:00Z,28.8667,-90.4833,16.8,11111222 
WAVCIS,ioos:station:WAVCIS:CSI06:1,2010-08-05T01:00:00Z,28.8667,-90.4833,20.7,11111222 
WAVCIS,ioos:station:WAVCIS:CSI06:1,2010-08-05T02:00:00Z,28.8667,-90.4833,23.7,11111222 
WAVCIS,ioos:station:WAVCIS:CSI06:1,2010-08-05T03:00:00Z,28.8667,-90.4833,26.6,11111222 
WAVCIS,ioos:station:WAVCIS:CSI06:1,2010-08-05T04:00:00Z,28.8667,-90.4833,24.6,11111222 
WAVCIS,ioos:station:WAVCIS:CSI06:1,2010-08-05T05:00:00Z,28.8667,-90.4833,27.3,11111222 
WAVCIS,ioos:station:WAVCIS:CSI06:1,2010-08-05T06:00:00Z,28.8667,-90.4833,26.9,11111222 
WAVCIS,ioos:station:WAVCIS:CSI06:1,2010-08-05T07:00:00Z,28.8667,-90.4833,29.1,11111222 
WAVCIS,ioos:station:WAVCIS:CSI06:1,2010-08-05T08:00:00Z,28.8667,-90.4833,31.8,11111222 
WAVCIS,ioos:station:WAVCIS:CSI06:1,2010-08-05T09:00:00Z,28.8667,-90.4833,30.0,11111222 
WAVCIS,ioos:station:WAVCIS:CSI06:1,2010-08-05T10:00:00Z,28.8667,-90.4833,31.7,11111222 
WAVCIS,ioos:station:WAVCIS:CSI06:1,2010-08-05T11:00:00Z,28.8667,-90.4833,29.5,11111222 
WAVCIS,ioos:station:WAVCIS:CSI06:1,2010-08-05T12:00:00Z,28.8667,-90.4833,32.2,11111222 
WAVCIS,ioos:station:WAVCIS:CSI06:1,2010-08-05T13:00:00Z,28.8667,-90.4833,32.9,11111222 
WAVCIS,ioos:station:WAVCIS:CSI06:1,2010-08-05T14:00:00Z,28.8667,-90.4833,33.6,11111222 
WAVCIS,ioos:station:WAVCIS:CSI06:1,2010-08-05T15:00:00Z,28.8667,-90.4833,37.3,11111222 
WAVCIS,ioos:station:WAVCIS:CSI06:1,2010-08-05T16:00:00Z,28.8667,-90.4833,33.4,11111222 
WAVCIS,ioos:station:WAVCIS:CSI06:1,2010-08-05T17:00:00Z,28.8667,-90.4833,31.7,11111222 
WAVCIS,ioos:station:WAVCIS:CSI06:1,2010-08-05T18:00:00Z,28.8667,-90.4833,28.4,11111222 
WAVCIS,ioos:station:WAVCIS:CSI06:1,2010-08-05T19:00:00Z,28.8667,-90.4833,27.3,11111222 
WAVCIS,ioos:station:WAVCIS:CSI06:1,2010-08-05T20:00:00Z,28.8667,-90.4833,26.2,11111222 
WAVCIS,ioos:station:WAVCIS:CSI06:1,2010-08-05T21:00:00Z,28.8667,-90.4833,28.2,11111222 
WAVCIS,ioos:station:WAVCIS:CSI06:1,2010-08-05T22:00:00Z,28.8667,-90.4833,24.3,11111222 
WAVCIS,ioos:station:WAVCIS:CSI06:1,2010-08-05T23:00:00Z,28.8667,-90.4833,22.8,11111222 
WAVCIS,ioos:station:WAVCIS:CSI06:1,2010-08-06T00:00:00Z,28.8667,-90.4833,23.9,11111222 
WAVCIS,ioos:station:WAVCIS:CSI06:1,2010-08-06T01:00:00Z,28.8667,-90.4833,29.9,11111222 
WAVCIS,ioos:station:WAVCIS:CSI06:1,2010-08-06T02:00:00Z,28.8667,-90.4833,29.8,11111222 
WAVCIS,ioos:station:WAVCIS:CSI06:1,2010-08-06T03:00:00Z,28.8667,-90.4833,29.5,11111222 
WAVCIS,ioos:station:WAVCIS:CSI06:1,2010-08-06T04:00:00Z,28.8667,-90.4833,30.8,11111222 
WAVCIS,ioos:station:WAVCIS:CSI06:1,2010-08-06T05:00:00Z,28.8667,-90.4833,34.1,11111222 
WAVCIS,ioos:station:WAVCIS:CSI06:1,2010-08-06T06:00:00Z,28.8667,-90.4833,33.0,11111222 
WAVCIS,ioos:station:WAVCIS:CSI06:1,2010-08-06T07:00:00Z,28.8667,-90.4833,32.5,11111222 
WAVCIS,ioos:station:WAVCIS:CSI06:1,2010-08-06T08:00:00Z,28.8667,-90.4833,33.9,11111222 
WAVCIS,ioos:station:WAVCIS:CSI06:1,2010-08-06T09:00:00Z,28.8667,-90.4833,34.4,11111222 
WAVCIS,ioos:station:WAVCIS:CSI06:1,2010-08-06T10:00:00Z,28.8667,-90.4833,31.3,11111222 
WAVCIS,ioos:station:WAVCIS:CSI06:1,2010-08-06T11:00:00Z,28.8667,-90.4833,37.1,11111222 
WAVCIS,ioos:station:WAVCIS:CSI06:1,2010-08-06T12:00:00Z,28.8667,-90.4833,34.9,11111222 
WAVCIS,ioos:station:WAVCIS:CSI06:1,2010-08-06T13:00:00Z,28.8667,-90.4833,36.3,11111222 
WAVCIS,ioos:station:WAVCIS:CSI06:1,2010-08-06T14:00:00Z,28.8667,-90.4833,32.8,11111222 
WAVCIS,ioos:station:WAVCIS:CSI06:1,2010-08-06T15:00:00Z,28.8667,-90.4833,30.3,11111222 
WAVCIS,ioos:station:WAVCIS:CSI06:1,2010-08-06T16:00:00Z,28.8667,-90.4833,29.4,11111222 
WAVCIS,ioos:station:WAVCIS:CSI06:1,2010-08-06T17:00:00Z,28.8667,-90.4833,29.6,11111222 
WAVCIS,ioos:station:WAVCIS:CSI06:1,2010-08-06T18:00:00Z,28.8667,-90.4833,30.2,11111222 
WAVCIS,ioos:station:WAVCIS:CSI06:1,2010-08-06T19:00:00Z,28.8667,-90.4833,32.5,11111222 
WAVCIS,ioos:station:WAVCIS:CSI06:1,2010-08-06T20:00:00Z,28.8667,-90.4833,26.2,11111222 
WAVCIS,ioos:station:WAVCIS:CSI06:1,2010-08-06T21:00:00Z,28.8667,-90.4833,27.6,11111222 
WAVCIS,ioos:station:WAVCIS:CSI06:1,2010-08-06T22:00:00Z,28.8667,-90.4833,24.7,11111222 
WAVCIS,ioos:station:WAVCIS:CSI06:1,2010-08-06T23:00:00Z,28.8667,-90.4833,25.2,11111222 
WAVCIS,ioos:station:WAVCIS:CSI06:1,2010-08-07T00:00:00Z,28.8667,-90.4833,24.8,11111222 
WAVCIS,ioos:station:WAVCIS:CSI06:1,2010-08-07T01:00:00Z,28.8667,-90.4833,30.7,11111222 
WAVCIS,ioos:station:WAVCIS:CSI06:1,2010-08-07T02:00:00Z,28.8667,-90.4833,31.6,11111222 
WAVCIS,ioos:station:WAVCIS:CSI06:1,2010-08-07T03:00:00Z,28.8667,-90.4833,28.2,11111222 
WAVCIS,ioos:station:WAVCIS:CSI06:1,2010-08-07T04:00:00Z,28.8667,-90.4833,29.7,11111222 
WAVCIS,ioos:station:WAVCIS:CSI06:1,2010-08-07T05:00:00Z,28.8667,-90.4833,29.9,11111222 
WAVCIS,ioos:station:WAVCIS:CSI06:1,2010-08-07T06:00:00Z,28.8667,-90.4833,33.6,11111222 
WAVCIS,ioos:station:WAVCIS:CSI06:1,2010-08-07T07:00:00Z,28.8667,-90.4833,34.3,11111222 
WAVCIS,ioos:station:WAVCIS:CSI06:1,2010-08-07T08:00:00Z,28.8667,-90.4833,42.9,11111222 
WAVCIS,ioos:station:WAVCIS:CSI06:1,2010-08-07T09:00:00Z,28.8667,-90.4833,32.9,11111222 
WAVCIS,ioos:station:WAVCIS:CSI06:1,2010-08-07T10:00:00Z,28.8667,-90.4833,31.4,11111222 
WAVCIS,ioos:station:WAVCIS:CSI06:1,2010-08-07T11:00:00Z,28.8667,-90.4833,39.5,11111222 
WAVCIS,ioos:station:WAVCIS:CSI06:1,2010-08-07T12:00:00Z,28.8667,-90.4833,33.2,11111222 
WAVCIS,ioos:station:WAVCIS:CSI06:1,2010-08-07T13:00:00Z,28.8667,-90.4833,31.0,11111222 
WAVCIS,ioos:station:WAVCIS:CSI06:1,2010-08-07T14:00:00Z,28.8667,-90.4833,36.0,11111222 
WAVCIS,ioos:station:WAVCIS:CSI06:1,2010-08-07T15:00:00Z,28.8667,-90.4833,37.2,11111222 
WAVCIS,ioos:station:WAVCIS:CSI06:1,2010-08-07T16:00:00Z,28.8667,-90.4833,40.5,11111222 
WAVCIS,ioos:station:WAVCIS:CSI06:1,2010-08-07T17:00:00Z,28.8667,-90.4833,39.6,11111222 
WAVCIS,ioos:station:WAVCIS:CSI06:1,2010-08-07T18:00:00Z,28.8667,-90.4833,37.1,11111222 
WAVCIS,ioos:station:WAVCIS:CSI06:1,2010-08-07T19:00:00Z,28.8667,-90.4833,28.3,11111222 
WAVCIS,ioos:station:WAVCIS:CSI06:1,2010-08-07T20:00:00Z,28.8667,-90.4833,30.8,11111222 
WAVCIS,ioos:station:WAVCIS:CSI06:1,2010-08-07T21:00:00Z,28.8667,-90.4833,28.5,11111222 
WAVCIS,ioos:station:WAVCIS:CSI06:1,2010-08-07T22:00:00Z,28.8667,-90.4833,35.0,11111222 
WAVCIS,ioos:station:WAVCIS:CSI06:1,2010-08-07T23:00:00Z,28.8667,-90.4833,27.9,11111222 
WAVCIS,ioos:station:WAVCIS:CSI06:1,2010-08-08T00:00:00Z,28.8667,-90.4833,32.4,11111222 
WAVCIS,ioos:station:WAVCIS:CSI06:1,2010-08-08T01:00:00Z,28.8667,-90.4833,34.0,11111222 
WAVCIS,ioos:station:WAVCIS:CSI06:1,2010-08-08T02:00:00Z,28.8667,-90.4833,34.0,11111222 
WAVCIS,ioos:station:WAVCIS:CSI06:1,2010-08-08T03:00:00Z,28.8667,-90.4833,32.3,11111222 
WAVCIS,ioos:station:WAVCIS:CSI06:1,2010-08-08T04:00:00Z,28.8667,-90.4833,29.5,11111222 
WAVCIS,ioos:station:WAVCIS:CSI06:1,2010-08-08T05:00:00Z,28.8667,-90.4833,27.2,11111222 
WAVCIS,ioos:station:WAVCIS:CSI06:1,2010-08-08T06:00:00Z,28.8667,-90.4833,30.5,11111222 
WAVCIS,ioos:station:WAVCIS:CSI06:1,2010-08-08T07:00:00Z,28.8667,-90.4833,32.2,11111222 
WAVCIS,ioos:station:WAVCIS:CSI06:1,2010-08-08T08:00:00Z,28.8667,-90.4833,34.5,11111222 
WAVCIS,ioos:station:WAVCIS:CSI06:1,2010-08-08T09:00:00Z,28.8667,-90.4833,33.8,11111222 
WAVCIS,ioos:station:WAVCIS:CSI06:1,2010-08-08T10:00:00Z,28.8667,-90.4833,33.1,11111222 
WAVCIS,ioos:station:WAVCIS:CSI06:1,2010-08-08T11:00:00Z,28.8667,-90.4833,33.0,11111222 
WAVCIS,ioos:station:WAVCIS:CSI06:1,2010-08-08T12:00:00Z,28.8667,-90.4833,28.7,11111222 
WAVCIS,ioos:station:WAVCIS:CSI06:1,2010-08-08T13:00:00Z,28.8667,-90.4833,27.8,11111222 
WAVCIS,ioos:station:WAVCIS:CSI06:1,2010-08-08T14:00:00Z,28.8667,-90.4833,31.8,11111222 
WAVCIS,ioos:station:WAVCIS:CSI06:1,2010-08-08T15:00:00Z,28.8667,-90.4833,30.7,11111222 
WAVCIS,ioos:station:WAVCIS:CSI06:1,2010-08-08T16:00:00Z,28.8667,-90.4833,29.3,11111222 
WAVCIS,ioos:station:WAVCIS:CSI06:1,2010-08-08T17:00:00Z,28.8667,-90.4833,27.6,11111222 
WAVCIS,ioos:station:WAVCIS:CSI06:1,2010-08-08T18:00:00Z,28.8667,-90.4833,27.7,11111222 
WAVCIS,ioos:station:WAVCIS:CSI06:1,2010-08-08T19:00:00Z,28.8667,-90.4833,28.2,11111222 
WAVCIS,ioos:station:WAVCIS:CSI06:1,2010-08-08T20:00:00Z,28.8667,-90.4833,28.6,11111222 
WAVCIS,ioos:station:WAVCIS:CSI06:1,2010-08-08T21:00:00Z,28.8667,-90.4833,30.5,11111222 
WAVCIS,ioos:station:WAVCIS:CSI06:1,2010-08-08T22:00:00Z,28.8667,-90.4833,35.1,11111222 
WAVCIS,ioos:station:WAVCIS:CSI06:1,2010-08-08T23:00:00Z,28.8667,-90.4833,33.9,11111222 
WAVCIS,ioos:station:WAVCIS:CSI06:1,2010-08-09T00:00:00Z,28.8667,-90.4833,31.3,11111222 
WAVCIS,ioos:station:WAVCIS:CSI06:1,2010-08-09T01:00:00Z,28.8667,-90.4833,27.1,11111222 
WAVCIS,ioos:station:WAVCIS:CSI06:1,2010-08-09T02:00:00Z,28.8667,-90.4833,25.8,11111222 
WAVCIS,ioos:station:WAVCIS:CSI06:1,2010-08-09T03:00:00Z,28.8667,-90.4833,25.6,11111222 
WAVCIS,ioos:station:WAVCIS:CSI06:1,2010-08-09T04:00:00Z,28.8667,-90.4833,28.8,11111222 
WAVCIS,ioos:station:WAVCIS:CSI06:1,2010-08-09T05:00:00Z,28.8667,-90.4833,29.8,11111222 
WAVCIS,ioos:station:WAVCIS:CSI06:1,2010-08-09T06:00:00Z,28.8667,-90.4833,28.5,11111222 
WAVCIS,ioos:station:WAVCIS:CSI06:1,2010-08-09T07:00:00Z,28.8667,-90.4833,30.5,11111222 
WAVCIS,ioos:station:WAVCIS:CSI06:1,2010-08-09T08:00:00Z,28.8667,-90.4833,32.8,11111222 
WAVCIS,ioos:station:WAVCIS:CSI06:1,2010-08-09T09:00:00Z,28.8667,-90.4833,37.2,11111222 
WAVCIS,ioos:station:WAVCIS:CSI06:1,2010-08-09T10:00:00Z,28.8667,-90.4833,36.8,11111222 
WAVCIS,ioos:station:WAVCIS:CSI06:1,2010-08-09T11:00:00Z,28.8667,-90.4833,30.2,11111222 
WAVCIS,ioos:station:WAVCIS:CSI06:1,2010-08-09T12:00:00Z,28.8667,-90.4833,31.1,11111222 
WAVCIS,ioos:station:WAVCIS:CSI06:1,2010-08-09T13:00:00Z,28.8667,-90.4833,27.2,11111222 
WAVCIS,ioos:station:WAVCIS:CSI06:1,2010-08-09T14:00:00Z,28.8667,-90.4833,38.7,11111222 
WAVCIS,ioos:station:WAVCIS:CSI06:1,2010-08-09T15:00:00Z,28.8667,-90.4833,31.9,11111222 
WAVCIS,ioos:station:WAVCIS:CSI06:1,2010-08-09T16:00:00Z,28.8667,-90.4833,36.0,11111222 
WAVCIS,ioos:station:WAVCIS:CSI06:1,2010-08-09T17:00:00Z,28.8667,-90.4833,33.8,11111222 
WAVCIS,ioos:station:WAVCIS:CSI06:1,2010-08-09T18:00:00Z,28.8667,-90.4833,27.4,11111222 
WAVCIS,ioos:station:WAVCIS:CSI06:1,2010-08-09T19:00:00Z,28.8667,-90.4833,34.9,11111222 
WAVCIS,ioos:station:WAVCIS:CSI06:1,2010-08-09T20:00:00Z,28.8667,-90.4833,35.4,11111222 
WAVCIS,ioos:station:WAVCIS:CSI06:1,2010-08-09T21:00:00Z,28.8667,-90.4833,40.3,11111222 
WAVCIS,ioos:station:WAVCIS:CSI06:1,2010-08-09T22:00:00Z,28.8667,-90.4833,34.8,11111222 
WAVCIS,ioos:station:WAVCIS:CSI06:1,2010-08-09T23:00:00Z,28.8667,-90.4833,33.8,11111222 
WAVCIS,ioos:station:WAVCIS:CSI06:1,2010-08-10T00:00:00Z,28.8667,-90.4833,39.3,11111222 
WAVCIS,ioos:station:WAVCIS:CSI06:1,2010-08-10T01:00:00Z,28.8667,-90.4833,35.1,11111222 
WAVCIS,ioos:station:WAVCIS:CSI06:1,2010-08-10T02:00:00Z,28.8667,-90.4833,33.7,11111222 
WAVCIS,ioos:station:WAVCIS:CSI06:1,2010-08-10T03:00:00Z,28.8667,-90.4833,34.9,11111222 
WAVCIS,ioos:station:WAVCIS:CSI06:1,2010-08-10T04:00:00Z,28.8667,-90.4833,31.3,11111222 
WAVCIS,ioos:station:WAVCIS:CSI06:1,2010-08-10T05:00:00Z,28.8667,-90.4833,28.3,11111222 
WAVCIS,ioos:station:WAVCIS:CSI06:1,2010-08-10T06:00:00Z,28.8667,-90.4833,28.2,11111222 
WAVCIS,ioos:station:WAVCIS:CSI06:1,2010-08-10T07:00:00Z,28.8667,-90.4833,28.6,11111222 
WAVCIS,ioos:station:WAVCIS:CSI06:1,2010-08-10T08:00:00Z,28.8667,-90.4833,33.2,11111222 
WAVCIS,ioos:station:WAVCIS:CSI06:1,2010-08-10T09:00:00Z,28.8667,-90.4833,34.5,11111222 
WAVCIS,ioos:station:WAVCIS:CSI06:1,2010-08-10T10:00:00Z,28.8667,-90.4833,35.0,11111222 
WAVCIS,ioos:station:WAVCIS:CSI06:1,2010-08-10T11:00:00Z,28.8667,-90.4833,31.2,11111222 
WAVCIS,ioos:station:WAVCIS:CSI06:1,2010-08-10T12:00:00Z,28.8667,-90.4833,33.0,11111222 
WAVCIS,ioos:station:WAVCIS:CSI06:1,2010-08-10T13:00:00Z,28.8667,-90.4833,33.8,11111222 
WAVCIS,ioos:station:WAVCIS:CSI06:1,2010-08-10T14:00:00Z,28.8667,-90.4833,34.0,11111222 
WAVCIS,ioos:station:WAVCIS:CSI06:1,2010-08-10T15:00:00Z,28.8667,-90.4833,31.0,11111222 
WAVCIS,ioos:station:WAVCIS:CSI06:1,2010-08-10T16:00:00Z,28.8667,-90.4833,26.6,11111222 
WAVCIS,ioos:station:WAVCIS:CSI06:1,2010-08-10T17:00:00Z,28.8667,-90.4833,21.9,11111222 
WAVCIS,ioos:station:WAVCIS:CSI06:1,2010-08-10T18:00:00Z,28.8667,-90.4833,21.9,11111222 
WAVCIS,ioos:station:WAVCIS:CSI06:1,2010-08-10T19:00:00Z,28.8667,-90.4833,17.6,11111222 
WAVCIS,ioos:station:WAVCIS:CSI06:1,2010-08-10T20:00:00Z,28.8667,-90.4833,17.6,11111222 
WAVCIS,ioos:station:WAVCIS:CSI06:1,2010-08-10T21:00:00Z,28.8667,-90.4833,17.8,11111222 
WAVCIS,ioos:station:WAVCIS:CSI06:1,2010-08-10T22:00:00Z,28.8667,-90.4833,19.0,11111222 
WAVCIS,ioos:station:WAVCIS:CSI06:1,2010-08-10T23:00:00Z,28.8667,-90.4833,14.6,11111222 
WAVCIS,ioos:station:WAVCIS:CSI06:1,2010-08-11T00:00:00Z,28.8667,-90.4833,17.1,11111222 
WAVCIS,ioos:station:WAVCIS:CSI06:1,2010-08-11T01:00:00Z,28.8667,-90.4833,16.3,11111222 
WAVCIS,ioos:station:WAVCIS:CSI06:1,2010-08-11T02:00:00Z,28.8667,-90.4833,18.5,11111222 
WAVCIS,ioos:station:WAVCIS:CSI06:1,2010-08-11T03:00:00Z,28.8667,-90.4833,21.6,11111222 
WAVCIS,ioos:station:WAVCIS:CSI06:1,2010-08-11T04:00:00Z,28.8667,-90.4833,24.1,11111222 
WAVCIS,ioos:station:WAVCIS:CSI06:1,2010-08-11T05:00:00Z,28.8667,-90.4833,25.1,11111222 
WAVCIS,ioos:station:WAVCIS:CSI06:1,2010-08-11T06:00:00Z,28.8667,-90.4833,22.4,11111222 
WAVCIS,ioos:station:WAVCIS:CSI06:1,2010-08-11T07:00:00Z,28.8667,-90.4833,29.4,11111222 
WAVCIS,ioos:station:WAVCIS:CSI06:1,2010-08-11T08:00:00Z,28.8667,-90.4833,24.4,11111222 
WAVCIS,ioos:station:WAVCIS:CSI06:1,2010-08-11T09:00:00Z,28.8667,-90.4833,25.4,11111222 
WAVCIS,ioos:station:WAVCIS:CSI06:1,2010-08-11T10:00:00Z,28.8667,-90.4833,30.3,11111222 
WAVCIS,ioos:station:WAVCIS:CSI06:1,2010-08-11T11:00:00Z,28.8667,-90.4833,29.2,11111222 
WAVCIS,ioos:station:WAVCIS:CSI06:1,2010-08-11T12:00:00Z,28.8667,-90.4833,32.2,11111222 
WAVCIS,ioos:station:WAVCIS:CSI06:1,2010-08-11T13:00:00Z,28.8667,-90.4833,29.1,11111222 
WAVCIS,ioos:station:WAVCIS:CSI06:1,2010-08-11T14:00:00Z,28.8667,-90.4833,28.0,11111222 
WAVCIS,ioos:station:WAVCIS:CSI06:1,2010-08-11T15:00:00Z,28.8667,-90.4833,34.6,11111222 
WAVCIS,ioos:station:WAVCIS:CSI06:1,2010-08-11T16:00:00Z,28.8667,-90.4833,32.7,11111222 
WAVCIS,ioos:station:WAVCIS:CSI06:1,2010-08-11T17:00:00Z,28.8667,-90.4833,27.4,11111222 
WAVCIS,ioos:station:WAVCIS:CSI06:1,2010-08-11T18:00:00Z,28.8667,-90.4833,30.4,11111222 
WAVCIS,ioos:station:WAVCIS:CSI06:1,2010-08-11T19:00:00Z,28.8667,-90.4833,29.9,11111222 
WAVCIS,ioos:station:WAVCIS:CSI06:1,2010-08-11T20:00:00Z,28.8667,-90.4833,32.1,11111222 
WAVCIS,ioos:station:WAVCIS:CSI06:1,2010-08-11T21:00:00Z,28.8667,-90.4833,29.1,11111222 
WAVCIS,ioos:station:WAVCIS:CSI06:1,2010-08-11T22:00:00Z,28.8667,-90.4833,27.9,11111222 
WAVCIS,ioos:station:WAVCIS:CSI06:1,2010-08-11T23:00:00Z,28.8667,-90.4833,24.6,11111222 
WAVCIS,ioos:station:WAVCIS:CSI06:1,2010-08-12T00:00:00Z,28.8667,-90.4833,31.9,11111222 
WAVCIS,ioos:station:WAVCIS:CSI06:1,2010-08-12T01:00:00Z,28.8667,-90.4833,26.3,11111222 
WAVCIS,ioos:station:WAVCIS:CSI06:1,2010-08-12T02:00:00Z,28.8667,-90.4833,27.0,11111222 
WAVCIS,ioos:station:WAVCIS:CSI06:1,2010-08-12T03:00:00Z,28.8667,-90.4833,29.7,11111222 
WAVCIS,ioos:station:WAVCIS:CSI06:1,2010-08-12T04:00:00Z,28.8667,-90.4833,29.7,11111222 
WAVCIS,ioos:station:WAVCIS:CSI06:1,2010-08-12T05:00:00Z,28.8667,-90.4833,25.4,11111222 
WAVCIS,ioos:station:WAVCIS:CSI06:1,2010-08-12T06:00:00Z,28.8667,-90.4833,26.7,11111222 
WAVCIS,ioos:station:WAVCIS:CSI06:1,2010-08-12T07:00:00Z,28.8667,-90.4833,24.5,11111222 
WAVCIS,ioos:station:WAVCIS:CSI06:1,2010-08-12T08:00:00Z,28.8667,-90.4833,29.2,11111222 
WAVCIS,ioos:station:WAVCIS:CSI06:1,2010-08-12T09:00:00Z,28.8667,-90.4833,31.6,11111222 
WAVCIS,ioos:station:WAVCIS:CSI06:1,2010-08-12T10:00:00Z,28.8667,-90.4833,32.0,11111222 
WAVCIS,ioos:station:WAVCIS:CSI06:1,2010-08-12T11:00:00Z,28.8667,-90.4833,31.2,11111222 
WAVCIS,ioos:station:WAVCIS:CSI06:1,2010-08-12T12:00:00Z,28.8667,-90.4833,31.3,11111222 
WAVCIS,ioos:station:WAVCIS:CSI06:1,2010-08-12T13:00:00Z,28.8667,-90.4833,29.2,11111222 
WAVCIS,ioos:station:WAVCIS:CSI06:1,2010-08-12T14:00:00Z,28.8667,-90.4833,40.8,11111222 
WAVCIS,ioos:station:WAVCIS:CSI06:1,2010-08-12T15:00:00Z,28.8667,-90.4833,43.2,11111222 
WAVCIS,ioos:station:WAVCIS:CSI06:1,2010-08-12T16:00:00Z,28.8667,-90.4833,35.3,11111222 